Time,TemperatureF,DewpointF,PressureIn,WindDirection,WindDirectionDegrees,WindSpeedMPH,WindSpeedGustMPH,Humidity,HourlyPrecipIn,Conditions,Clouds,dailyrainin,SolarRadiationWatts/m^2,SoftwareType,DateUTC
2013-08-20 00:10:00,59.0,57.0,30.06,South,185,0.0,0.0,93,0.00,,,0.00,0,weatherlink.com 1.10,2013-08-20 07:10:00,
2013-08-20 00:25:00,59.4,57.0,30.06,South,185,0.0,0.0,93,0.00,,,0.00,0,weatherlink.com 1.10,2013-08-20 07:25:00,
2013-08-20 00:40:00,59.7,58.0,30.06,South,185,0.0,0.0,93,0.00,,,0.00,0,weatherlink.com 1.10,2013-08-20 07:40:00,
2013-08-20 00:55:00,59.7,58.0,30.06,South,185,0.0,0.0,93,0.00,,,0.00,0,weatherlink.com 1.10,2013-08-20 07:55:00,
2013-08-20 01:10:00,59.9,58.0,30.06,South,185,0.0,0.0,93,0.00,,,0.00,0,weatherlink.com 1.10,2013-08-20 08:10:00,
2013-08-20 01:25:00,59.9,58.0,30.06,South,185,0.0,0.0,93,0.00,,,0.00,0,weatherlink.com 1.10,2013-08-20 08:25:00,
2013-08-20 01:40:00,59.8,58.0,30.05,South,185,0.0,0.0,93,0.00,,,0.00,0,weatherlink.com 1.10,2013-08-20 08:40:00,
2013-08-20 01:55:00,59.5,58.0,30.06,South,185,0.0,0.0,93,0.00,,,0.00,0,weatherlink.com 1.10,2013-08-20 08:55:00,
2013-08-20 02:10:00,59.2,57.0,30.06,South,185,0.0,0.0,93,0.00,,,0.00,0,weatherlink.com 1.10,2013-08-20 09:10:00,
2013-08-20 02:25:00,59.1,57.0,30.06,South,185,0.0,0.0,93,0.00,,,0.00,0,weatherlink.com 1.10,2013-08-20 09:25:00,
2013-08-20 02:40:00,59.2,58.0,30.05,South,185,0.0,0.0,94,0.00,,,0.00,0,weatherlink.com 1.10,2013-08-20 09:40:00,
2013-08-20 02:55:00,59.9,58.0,30.05,South,185,0.0,1.0,94,0.00,,,0.00,0,weatherlink.com 1.10,2013-08-20 09:55:00,
2013-08-20 03:10:00,60.7,59.0,30.05,South,185,0.0,0.0,94,0.00,,,0.00,0,weatherlink.com 1.10,2013-08-20 10:10:00,
2013-08-20 03:25:00,61.4,60.0,30.05,South,185,0.0,0.0,94,0.00,,,0.00,0,weatherlink.com 1.10,2013-08-20 10:25:00,
2013-08-20 03:40:00,61.8,60.0,30.05,SSE,151,0.0,0.0,94,0.00,,,0.00,0,weatherlink.com 1.10,2013-08-20 10:40:00,
2013-08-20 03:55:00,62.0,60.0,30.04,West,259,0.0,0.0,94,0.00,,,0.00,0,weatherlink.com 1.10,2013-08-20 10:55:00,
2013-08-20 04:10:00,61.9,60.0,30.04,NW,316,0.0,3.0,94,0.00,,,0.00,0,weatherlink.com 1.10,2013-08-20 11:10:00,
2013-08-20 04:25:00,61.8,60.0,30.04,NW,311,0.0,1.0,94,0.00,,,0.00,0,weatherlink.com 1.10,2013-08-20 11:25:00,
2013-08-20 04:40:00,61.7,60.0,30.05,NW,311,0.0,1.0,94,0.00,,,0.00,0,weatherlink.com 1.10,2013-08-20 11:40:00,
2013-08-20 04:55:00,61.7,60.0,30.05,NW,322,0.0,3.0,94,0.00,,,0.00,0,weatherlink.com 1.10,2013-08-20 11:55:00,
2013-08-20 05:10:00,61.6,60.0,30.04,NW,325,1.0,3.0,94,0.00,,,0.00,0,weatherlink.com 1.10,2013-08-20 12:10:00,
2013-08-20 05:25:00,61.6,60.0,30.04,NW,325,0.0,1.0,95,0.00,,,0.00,0,weatherlink.com 1.10,2013-08-20 12:25:00,
2013-08-20 05:40:00,61.6,60.0,30.04,NW,325,0.0,1.0,95,0.00,,,0.00,0,weatherlink.com 1.10,2013-08-20 12:40:00,
2013-08-20 05:55:00,61.7,60.0,30.05,NW,325,0.0,0.0,95,0.00,,,0.00,0,weatherlink.com 1.10,2013-08-20 12:55:00,
2013-08-20 06:10:00,61.6,60.0,30.05,NW,309,0.0,4.0,95,0.00,,,0.00,0,weatherlink.com 1.10,2013-08-20 13:10:00,
2013-08-20 06:25:00,61.7,60.0,30.05,NW,317,0.0,2.0,95,0.00,,,0.00,5,weatherlink.com 1.10,2013-08-20 13:25:00,
2013-08-20 06:40:00,61.7,60.0,30.06,NW,317,0.0,1.0,95,0.00,,,0.00,14,weatherlink.com 1.10,2013-08-20 13:40:00,
2013-08-20 06:55:00,61.9,61.0,30.06,WSW,250,0.0,0.0,95,0.00,,,0.00,23,weatherlink.com 1.10,2013-08-20 13:55:00,
2013-08-20 07:11:00,61.9,60.0,30.07,WSW,250,0.0,1.0,94,0.00,,,0.00,30,weatherlink.com 1.10,2013-08-20 14:11:00,
2013-08-20 07:26:00,61.8,60.0,30.07,North,355,0.0,3.0,95,0.00,,,0.00,42,weatherlink.com 1.10,2013-08-20 14:26:00,
2013-08-20 07:41:00,62.1,61.0,30.07,WNW,290,1.0,4.0,95,0.00,,,0.00,60,weatherlink.com 1.10,2013-08-20 14:41:00,
2013-08-20 07:56:00,62.8,61.0,30.07,NNW,328,4.0,4.0,94,0.00,,,0.00,91,weatherlink.com 1.10,2013-08-20 14:56:00,
2013-08-20 08:11:00,63.1,61.0,30.07,NNW,348,3.0,3.0,93,0.00,,,0.00,132,weatherlink.com 1.10,2013-08-20 15:11:00,
2013-08-20 08:26:00,63.5,62.0,30.07,WNW,293,0.0,3.0,93,0.00,,,0.00,239,weatherlink.com 1.10,2013-08-20 15:26:00,
2013-08-20 08:41:00,65.2,62.0,30.07,NNW,331,3.0,4.0,89,0.00,,,0.00,216,weatherlink.com 1.10,2013-08-20 15:41:00,
2013-08-20 08:56:00,67.2,62.0,30.08,NNW,342,0.0,3.0,83,0.00,,,0.00,434,weatherlink.com 1.10,2013-08-20 15:56:00,
2013-08-20 09:11:00,69.9,63.0,30.08,NNW,338,5.0,5.0,78,0.00,,,0.00,480,weatherlink.com 1.10,2013-08-20 16:11:00,
2013-08-20 09:26:00,71.3,63.0,30.08,NNW,332,2.0,5.0,76,0.00,,,0.00,527,weatherlink.com 1.10,2013-08-20 16:26:00,
2013-08-20 09:42:00,72.1,63.0,30.08,NNE,15,1.0,4.0,73,0.00,,,0.00,573,weatherlink.com 1.10,2013-08-20 16:42:00,
2013-08-20 09:57:00,73.5,63.0,30.08,NNW,327,3.0,5.0,69,0.00,,,0.00,613,weatherlink.com 1.10,2013-08-20 16:57:00,
2013-08-20 10:12:00,74.2,62.0,30.07,NW,313,1.0,7.0,66,0.00,,,0.00,650,weatherlink.com 1.10,2013-08-20 17:12:00,
2013-08-20 10:27:00,76.8,64.0,30.07,SSE,157,2.0,5.0,65,0.00,,,0.00,682,weatherlink.com 1.10,2013-08-20 17:27:00,
2013-08-20 10:42:00,77.3,65.0,30.07,SE,135,2.0,6.0,65,0.00,,,0.00,717,weatherlink.com 1.10,2013-08-20 17:42:00,
2013-08-20 10:57:00,78.1,64.0,30.07,South,184,1.0,6.0,63,0.00,,,0.00,745,weatherlink.com 1.10,2013-08-20 17:57:00,
2013-08-20 11:12:00,77.9,64.0,30.07,SSE,155,2.0,6.0,63,0.00,,,0.00,773,weatherlink.com 1.10,2013-08-20 18:12:00,
2013-08-20 11:27:00,78.4,64.0,30.06,SW,215,0.0,7.0,62,0.00,,,0.00,795,weatherlink.com 1.10,2013-08-20 18:27:00,
2013-08-20 11:42:00,80.6,64.0,30.05,SSW,202,0.0,5.0,58,0.00,,,0.00,819,weatherlink.com 1.10,2013-08-20 18:42:00,
2013-08-20 11:57:00,81.3,62.0,30.05,NW,311,2.0,4.0,53,0.00,,,0.00,837,weatherlink.com 1.10,2013-08-20 18:57:00,
2013-08-20 12:12:00,83.0,65.0,30.04,ESE,113,4.0,7.0,54,0.00,,,0.00,849,weatherlink.com 1.10,2013-08-20 19:12:00,
2013-08-20 12:27:00,82.8,65.0,30.03,South,170,3.0,7.0,55,0.00,,,0.00,858,weatherlink.com 1.10,2013-08-20 19:27:00,
2013-08-20 12:42:00,82.7,65.0,30.03,SSE,147,6.0,7.0,55,0.00,,,0.00,860,weatherlink.com 1.10,2013-08-20 19:42:00,
2013-08-20 12:57:00,83.0,65.0,30.01,SSE,147,0.0,7.0,55,0.00,,,0.00,863,weatherlink.com 1.10,2013-08-20 19:57:00,
2013-08-20 13:12:00,84.5,65.0,30.02,South,180,1.0,8.0,52,0.00,,,0.00,860,weatherlink.com 1.10,2013-08-20 20:12:00,
2013-08-20 13:27:00,85.5,65.0,30.01,SSW,196,0.0,8.0,50,0.00,,,0.00,853,weatherlink.com 1.10,2013-08-20 20:27:00,
2013-08-20 13:42:00,84.5,64.0,30.01,SSE,151,2.0,8.0,51,0.00,,,0.00,847,weatherlink.com 1.10,2013-08-20 20:42:00,
2013-08-20 13:57:00,85.1,65.0,30.01,SSE,148,5.0,10.0,51,0.00,,,0.00,833,weatherlink.com 1.10,2013-08-20 20:57:00,
2013-08-20 14:12:00,84.3,65.0,30.01,South,169,3.0,7.0,52,0.00,,,0.00,496,weatherlink.com 1.10,2013-08-20 21:12:00,
2013-08-20 14:28:00,84.5,65.0,30.00,SSE,167,6.0,9.0,52,0.00,,,0.00,805,weatherlink.com 1.10,2013-08-20 21:28:00,
2013-08-20 14:43:00,83.1,64.0,30.00,SW,219,6.0,8.0,53,0.00,,,0.00,759,weatherlink.com 1.10,2013-08-20 21:43:00,
2013-08-20 14:58:00,82.6,64.0,29.99,SSW,212,2.0,7.0,54,0.00,,,0.00,751,weatherlink.com 1.10,2013-08-20 21:58:00,
2013-08-20 15:13:00,82.0,64.0,29.99,SSW,199,1.0,7.0,55,0.00,,,0.00,875,weatherlink.com 1.10,2013-08-20 22:13:00,
2013-08-20 15:28:00,82.9,65.0,29.98,SSW,195,0.0,6.0,55,0.00,,,0.00,728,weatherlink.com 1.10,2013-08-20 22:28:00,
2013-08-20 15:43:00,82.5,65.0,29.98,South,188,1.0,7.0,55,0.00,,,0.00,703,weatherlink.com 1.10,2013-08-20 22:43:00,
2013-08-20 15:58:00,79.6,64.0,29.98,SSE,149,4.0,5.0,59,0.00,,,0.00,142,weatherlink.com 1.10,2013-08-20 22:58:00,
2013-08-20 16:13:00,78.0,63.0,29.97,South,182,1.0,6.0,61,0.00,,,0.00,311,weatherlink.com 1.10,2013-08-20 23:13:00,
2013-08-20 16:28:00,79.9,64.0,29.96,SSE,167,2.0,6.0,58,0.00,,,0.00,561,weatherlink.com 1.10,2013-08-20 23:28:00,
2013-08-20 16:43:00,81.7,64.0,29.96,SE,130,1.0,5.0,55,0.00,,,0.00,592,weatherlink.com 1.10,2013-08-20 23:43:00,
2013-08-20 16:58:00,82.0,64.0,29.95,SSE,165,2.0,7.0,55,0.00,,,0.00,454,weatherlink.com 1.10,2013-08-20 23:58:00,
2013-08-20 17:13:00,82.3,64.0,29.95,SSW,207,0.0,6.0,55,0.00,,,0.00,411,weatherlink.com 1.10,2013-08-21 00:13:00,
2013-08-20 17:28:00,82.6,64.0,29.95,SSE,151,3.0,4.0,54,0.00,,,0.00,376,weatherlink.com 1.10,2013-08-21 00:28:00,
2013-08-20 17:43:00,82.3,64.0,29.95,SE,136,4.0,5.0,55,0.00,,,0.00,336,weatherlink.com 1.10,2013-08-21 00:43:00,
2013-08-20 17:58:00,80.1,64.0,29.95,South,186,1.0,7.0,58,0.00,,,0.00,239,weatherlink.com 1.10,2013-08-21 00:58:00,
2013-08-20 18:13:00,79.0,63.0,29.95,South,188,0.0,6.0,59,0.00,,,0.00,188,weatherlink.com 1.10,2013-08-21 01:13:00,
2013-08-20 18:28:00,76.9,63.0,29.95,SE,144,3.0,7.0,62,0.00,,,0.00,130,weatherlink.com 1.10,2013-08-21 01:28:00,
2013-08-20 18:43:00,74.9,62.0,29.96,SE,138,3.0,7.0,64,0.00,,,0.00,81,weatherlink.com 1.10,2013-08-21 01:43:00,
2013-08-20 18:58:00,72.9,62.0,29.97,South,191,0.0,5.0,68,0.00,,,0.00,21,weatherlink.com 1.10,2013-08-21 01:58:00,
2013-08-20 19:13:00,71.0,62.0,29.97,South,171,0.0,4.0,72,0.00,,,0.00,12,weatherlink.com 1.10,2013-08-21 02:13:00,
2013-08-20 19:28:00,69.6,61.0,29.97,SSE,160,0.0,4.0,75,0.00,,,0.00,5,weatherlink.com 1.10,2013-08-21 02:28:00,
2013-08-20 19:43:00,68.6,62.0,29.97,South,170,0.0,3.0,78,0.00,,,0.00,0,weatherlink.com 1.10,2013-08-21 02:43:00,
2013-08-20 19:58:00,67.6,61.0,29.98,SE,132,0.0,3.0,80,0.00,,,0.00,0,weatherlink.com 1.10,2013-08-21 02:58:00,
2013-08-20 20:13:00,66.4,61.0,29.98,SSE,157,0.0,2.0,82,0.00,,,0.00,0,weatherlink.com 1.10,2013-08-21 03:13:00,
2013-08-20 20:28:00,65.6,61.0,29.98,SSE,159,0.0,3.0,84,0.00,,,0.00,0,weatherlink.com 1.10,2013-08-21 03:28:00,
2013-08-20 20:43:00,64.9,60.0,29.99,SSE,157,0.0,1.0,85,0.00,,,0.00,0,weatherlink.com 1.10,2013-08-21 03:43:00,
2013-08-20 20:58:00,64.2,60.0,30.01,SSE,157,0.0,1.0,86,0.00,,,0.00,0,weatherlink.com 1.10,2013-08-21 03:58:00,
2013-08-20 21:13:00,63.9,60.0,30.02,SSE,157,0.0,1.0,87,0.00,,,0.00,0,weatherlink.com 1.10,2013-08-21 04:13:00,
2013-08-20 21:28:00,63.5,60.0,30.03,SSE,157,0.0,0.0,89,0.00,,,0.00,0,weatherlink.com 1.10,2013-08-21 04:28:00,
2013-08-20 21:43:00,62.5,59.0,30.03,SSE,157,0.0,0.0,88,0.00,,,0.00,0,weatherlink.com 1.10,2013-08-21 04:43:00,
2013-08-20 21:58:00,62.0,59.0,30.04,SSE,157,0.0,0.0,88,0.00,,,0.00,0,weatherlink.com 1.10,2013-08-21 04:58:00,
2013-08-20 22:13:00,61.5,58.0,30.04,SSE,157,0.0,0.0,89,0.00,,,0.00,0,weatherlink.com 1.10,2013-08-21 05:13:00,
2013-08-20 22:28:00,61.2,58.0,30.05,SSE,157,0.0,0.0,90,0.00,,,0.00,0,weatherlink.com 1.10,2013-08-21 05:28:00,
2013-08-20 22:43:00,60.6,57.0,30.05,SSE,157,0.0,0.0,89,0.00,,,0.00,0,weatherlink.com 1.10,2013-08-21 05:43:00,
2013-08-20 22:58:00,60.2,57.0,30.05,SSE,157,0.0,0.0,90,0.00,,,0.00,0,weatherlink.com 1.10,2013-08-21 05:58:00,
2013-08-20 23:13:00,59.6,57.0,30.05,SSE,157,0.0,0.0,90,0.00,,,0.00,0,weatherlink.com 1.10,2013-08-21 06:13:00,
2013-08-20 23:28:00,59.4,57.0,30.05,SSE,157,0.0,0.0,90,0.00,,,0.00,0,weatherlink.com 1.10,2013-08-21 06:28:00,
2013-08-20 23:43:00,59.0,56.0,30.05,SSE,157,0.0,0.0,91,0.00,,,0.00,0,weatherlink.com 1.10,2013-08-21 06:43:00,
2013-08-20 23:58:00,58.9,56.0,30.05,SSE,157,0.0,0.0,91,0.00,,,0.00,0,weatherlink.com 1.10,2013-08-21 06:58:00,